Probability
0 0 0 0 0 0 0 0 0 0 0 0 0 0 0 0 0 0 0 0 0 0 0 0 0 0 0 0 0 0 0 3 6 6 3 3 3 3 3 3 3 6 13 16
0 0 0 0 0 0 0 0 0 0 0 0 0 0 0 0 0 0 0 0 0 0 0 0 0 0 0 0 0 0 0 0 0 0 3 3 0 0 0 3 6 6 16 19
0 0 0 0 0 0 0 0 0 0 0 0 0 0 0 0 0 0 0 0 0 0 0 0 0 0 0 0 0 0 0 0 0 0 0 0 0 0 0 3 0 0 6 19
0 0 0 0 0 0 0 0 0 0 0 0 0 0 0 0 0 0 0 0 0 0 0 0 0 0 0 0 0 0 0 0 0 0 0 0 0 0 0 3 3 6 6 10
0 0 0 0 0 0 0 0 0 0 0 0 0 0 0 0 0 0 0 0 0 0 0 0 0 0 0 0 0 0 0 0 0 0 0 0 0 0 0 3 6 3 6 6
0 0 0 0 0 0 0 0 0 0 0 0 0 0 0 0 0 0 0 0 0 0 0 0 0 0 0 0 0 0 0 0 0 0 0 0 0 0 0 3 3 0 0 0
0 0 0 0 0 0 0 0 0 0 0 0 0 0 0 0 0 0 0 0 0 0 0 0 0 0 0 0 0 0 0 0 0 0 0 0 0 0 0 0 0 0 0 0
0 0 0 0 0 0 0 0 0 0 0 0 0 0 0 0 0 0 0 0 0 0 0 0 0 0 0 0 0 0 0 0 0 0 0 0 0 0 0 0 0 0 0 0
0 0 0 0 0 0 0 0 0 0 0 0 0 0 0 0 0 0 0 0 0 0 0 0 0 0 0 0 0 0 0 0 0 0 0 0 0 0 0 0 0 0 0 0
0 0 0 0 0 0 0 0 0 0 0 0 0 0 0 0 0 0 0 0 0 0 0 0 0 0 0 0 0 0 0 0 0 0 0 0 0 0 0 0 0 0 0 0
0 0 0 0 0 0 0 0 0 0 0 0 0 0 0 0 0 0 0 0 0 0 0 0 0 0 0 0 0 0 0 0 0 0 0 0 0 0 0 0 0 0 0 0
0 0 0 0 0 0 0 0 0 0 0 0 0 0 0 0 0 0 0 0 0 0 0 0 0 0 0 0 0 0 0 0 0 0 0 0 0 0 0 0 0 0 0 0
0 0 0 0 0 0 0 0 0 0 0 0 0 0 0 0 0 0 0 0 0 0 0 0 0 0 0 0 0 0 0 0 0 0 0 0 0 0 0 0 0 0 0 0
0 0 0 0 0 0 0 0 0 0 0 0 0 0 0 0 0 0 0 0 0 0 0 0 0 0 0 0 0 0 0 0 0 0 0 0 0 0 0 0 0 0 0 0
0 0 0 0 0 0 0 0 0 0 0 0 0 0 0 0 0 0 0 0 0 0 0 0 0 0 0 0 0 0 0 0 0 0 0 0 0 0 0 0 0 0 0 0
0 0 0 0 0 0 0 0 0 0 0 0 0 0 0 0 0 0 0 0 0 0 0 0 0 0 0 0 0 0 0 0 0 0 0 0 0 0 0 0 0 0 0 0
0 0 0 0 0 0 0 0 0 0 0 0 0 0 0 0 0 0 0 0 0 0 0 0 0 0 0 0 0 0 0 0 0 0 0 0 0 0 0 0 0 0 0 0
0 0 0 0 0 0 0 0 0 0 0 0 0 0 0 0 0 0 0 0 0 0 0 0 0 0 0 0 0 0 0 0 0 0 0 0 0 0 0 0 0 0 0 0
0 0 0 0 0 0 0 0 0 0 0 0 0 0 0 0 0 0 0 0 0 0 0 0 0 0 0 0 0 0 0 0 0 0 0 0 0 0 0 0 0 0 0 0
0 0 0 0 0 0 0 0 0 0 0 0 0 0 0 0 0 0 0 0 0 0 0 0 0 0 0 0 0 0 0 0 0 0 0 0 0 0 0 0 0 0 0 0
0 0 0 0 0 0 0 0 0 0 0 0 0 0 0 0 0 0 0 0 0 0 0 0 0 0 0 0 0 0 0 0 0 0 0 0 0 0 0 0 0 0 0 0
0 0 0 0 0 0 0 0 0 0 0 0 0 0 0 0 0 0 0 0 0 0 0 0 0 0 0 0 0 0 0 0 0 0 0 0 0 0 0 0 0 0 0 0
0 0 0 0 0 0 0 0 0 0 0 0 0 0 0 0 0 0 0 0 0 0 0 0 0 0 0 0 0 0 0 0 0 0 0 0 0 0 0 0 0 0 0 0
0 0 0 0 0 0 0 0 0 0 0 0 0 0 0 0 0 0 0 0 0 0 0 0 0 0 0 0 0 0 0 0 0 0 0 0 0 0 0 0 0 0 0 0
0 0 0 0 0 0 0 0 0 0 0 0 0 0 0 0 0 0 0 0 0 0 0 0 0 0 0 0 0 0 0 0 0 0 0 0 0 0 0 0 0 0 0 0
0 0 0 0 0 0 0 0 0 0 0 0 0 0 0 0 0 0 0 0 0 0 0 0 0 0 0 0 0 0 0 0 0 0 0 0 0 0 0 0 0 0 0 0
0 0 0 0 0 0 0 0 0 0 0 0 0 0 0 0 0 0 0 0 0 0 0 0 0 0 0 0 0 0 0 0 0 0 0 0 0 0 0 0 0 0 0 0
Height
5825 5819 5813 5808 5804 5800 5798 5796 5795 5794 5792 5791 5790 5788 5787 5785 5784 5783 5782 5782 5781 5781 5781 5781 5781 5781 5781 5781 5782 5782 5783 5783 5784 5784 5785 5785 5785 5785 5785 5785 5784 5784 5784 5784
5828 5822 5818 5813 5810 5806 5804 5801 5800 5798 5797 5795 5794 5792 5791 5789 5788 5787 5787 5786 5785 5784 5784 5783 5783 5783 5782 5782 5782 5782 5782 5782 5782 5782 5782 5782 5781 5781 5781 5780 5779 5779 5778 5778
5831 5826 5822 5818 5815 5811 5809 5807 5805 5803 5802 5800 5799 5797 5795 5794 5793 5792 5791 5790 5789 5788 5787 5786 5785 5785 5784 5783 5783 5782 5782 5781 5781 5780 5780 5779 5778 5777 5776 5775 5774 5774 5773 5772
5833 5830 5826 5825 5819 5816 5813 5811 5809 5807 5806 5804 5803 5802 5801 5799 5798 5797 5796 5795 5793 5792 5790 5789 5788 5787 5785 5784 5783 5782 5781 5780 5779 5777 5776 5775 5774 5773 5771 5770 5769 5768 5768 5767
5836 5832 5829 5826 5822 5819 5817 5815 5813 5812 5810 5809 5807 5806 5805 5804 5802 5801 5799 5798 5796 5795 5793 5791 5790 5788 5786 5784 5783 5781 5780 5778 5776 5774 5773 5771 5770 5768 5767 5765 5764 5763 5762 5761
5838 5835 5831 5829 5825 5822 5821 5818 5817 5815 5814 5812 5811 5810 5809 5807 5805 5804 5802 5800 5798 5797 5795 5793 5791 5788 5786 5784 5782 5780 5778 5776 5774 5772 5770 5768 5766 5764 5762 5761 5759 5757 5756 5755
5841 5837 5834 5831 5828 5826 5825 5823 5820 5818 5816 5815 5814 5813 5812 5810 5808 5806 5805 5802 5800 5798 5796 5794 5791 5789 5786 5784 5781 5779 5776 5774 5771 5769 5767 5764 5762 5760 5758 5756 5754 5752 5750 5749
5843 5839 5838 5832 5829 5828 5827 5824 5822 5820 5819 5817 5816 5815 5814 5812 5810 5809 5806 5804 5802 5800 5797 5795 5792 5789 5787 5784 5781 5778 5775 5772 5770 5767 5764 5762 5759 5757 5755 5752 5750 5748 5746 5744
5846 5844 5838 5834 5831 5829 5827 5825 5823 5822 5821 5819 5818 5817 5816 5814 5812 5810 5808 5806 5804 5801 5799 5796 5793 5790 5787 5784 5781 5778 5775 5772 5769 5766 5763 5761 5758 5755 5753 5750 5748 5745 5743 5741
5847 5843 5839 5835 5832 5830 5828 5826 5824 5823 5822 5821 5820 5819 5817 5816 5814 5812 5811 5808 5806 5803 5801 5798 5795 5792 5789 5786 5783 5779 5776 5773 5770 5767 5764 5761 5758 5755 5752 5749 5747 5744 5741 5739
5848 5845 5840 5836 5833 5830 5828 5826 5825 5824 5822 5822 5821 5820 5819 5817 5816 5814 5812 5810 5808 5805 5803 5800 5797 5794 5791 5788 5785 5781 5778 5775 5772 5768 5765 5762 5759 5756 5753 5750 5747 5744 5741 5739
5850 5846 5842 5839 5835 5831 5829 5827 5825 5824 5823 5822 5821 5821 5820 5819 5817 5816 5814 5812 5810 5808 5805 5802 5799 5796 5793 5790 5787 5784 5781 5777 5774 5771 5767 5764 5761 5758 5754 5751 5748 5745 5742 5740
5850 5847 5843 5840 5836 5833 5830 5828 5826 5824 5823 5822 5822 5821 5820 5819 5818 5817 5816 5814 5812 5810 5807 5804 5802 5799 5796 5793 5790 5787 5783 5780 5777 5774 5770 5767 5763 5760 5757 5754 5750 5747 5744 5741
5850 5847 5844 5841 5837 5834 5831 5828 5826 5824 5823 5822 5822 5821 5820 5820 5819 5818 5817 5815 5813 5811 5809 5807 5804 5802 5799 5796 5793 5790 5787 5783 5780 5777 5773 5770 5767 5763 5760 5757 5754 5750 5747 5744
5849 5847 5845 5842 5839 5836 5833 5830 5827 5825 5824 5823 5822 5821 5821 5820 5819 5818 5817 5816 5815 5813 5811 5809 5806 5804 5801 5799 5796 5793 5790 5787 5783 5780 5777 5773 5770 5767 5764 5760 5757 5754 5751 5748
5847 5845 5844 5842 5839 5837 5834 5831 5828 5826 5824 5823 5822 5821 5820 5820 5819 5818 5818 5817 5815 5814 5812 5810 5808 5806 5804 5801 5798 5796 5793 5790 5787 5784 5780 5777 5774 5771 5768 5764 5761 5758 5755 5753
5844 5843 5842 5841 5839 5837 5834 5832 5829 5827 5825 5823 5822 5820 5820 5819 5818 5818 5817 5817 5816 5814 5813 5811 5810 5807 5805 5803 5800 5798 5795 5792 5790 5787 5784 5781 5778 5775 5771 5768 5765 5763 5760 5757
5841 5840 5840 5839 5837 5836 5834 5832 5829 5827 5825 5823 5821 5820 5819 5818 5818 5817 5816 5816 5815 5814 5813 5812 5810 5808 5806 5804 5802 5800 5797 5795 5792 5789 5787 5784 5781 5778 5775 5772 5769 5767 5764 5761
5837 5837 5836 5835 5835 5834 5832 5831 5829 5827 5824 5823 5821 5819 5818 5817 5816 5816 5815 5815 5814 5813 5813 5812 5810 5809 5807 5805 5803 5801 5799 5796 5794 5791 5789 5786 5784 5781 5778 5776 5773 5770 5768 5765
5832 5832 5832 5831 5831 5831 5830 5829 5827 5826 5824 5822 5820 5818 5817 5816 5815 5814 5813 5813 5813 5812 5811 5811 5810 5808 5807 5806 5804 5802 5800 5798 5795 5793 5791 5788 5786 5784 5781 5778 5776 5773 5771 5768
5826 5826 5826 5826 5826 5826 5826 5825 5825 5824 5822 5821 5819 5817 5816 5814 5813 5812 5812 5811 5811 5810 5810 5809 5808 5808 5806 5805 5804 5802 5801 5799 5797 5794 5792 5790 5788 5785 5783 5781 5778 5776 5773 5771
5819 5820 5820 5820 5821 5821 5821 5821 5821 5820 5820 5818 5817 5816 5814 5813 5812 5810 5809 5809 5808 5808 5807 5807 5806 5806 5805 5804 5803 5802 5800 5799 5797 5795 5793 5791 5789 5787 5785 5782 5780 5778 5776 5773
5811 5812 5813 5814 5814 5815 5815 5816 5816 5816 5816 5815 5814 5813 5812 5811 5810 5808 5807 5806 5805 5805 5804 5804 5804 5803 5803 5802 5802 5801 5800 5798 5797 5795 5794 5792 5790 5788 5786 5784 5782 5779 5777 5775
5802 5803 5805 5806 5807 5807 5808 5809 5810 5810 5810 5810 5810 5810 5809 5808 5807 5806 5805 5804 5802 5801 5801 5801 5800 5800 5800 5800 5799 5799 5798 5797 5796 5795 5793 5792 5790 5788 5786 5784 5782 5781 5778 5776
5791 5793 5795 5797 5798 5799 5800 5801 5802 5803 5804 5804 5804 5804 5804 5804 5803 5802 5802 5801 5799 5798 5798 5797 5797 5796 5796 5796 5796 5796 5795 5795 5794 5793 5792 5791 5789 5788 5786 5784 5783 5781 5779 5777
5779 5782 5784 5786 5788 5789 5791 5792 5793 5795 5796 5797 5797 5798 5798 5798 5798 5798 5797 5797 5796 5795 5794 5793 5793 5792 5792 5792 5792 5792 5792 5792 5791 5791 5790 5789 5788 5787 5785 5784 5782 5781 5779 5777
5765 5768 5771 5774 5776 5777 5779 5781 5783 5785 5786 5788 5789 5790 5791 5791 5792 5792 5792 5792 5791 5791 5790 5789 5789 5788 5788 5788 5788 5788 5787 5787 5787 5787 5787 5786 5785 5784 5783 5782 5781 5780 5778 5777
Wind_Speed
25 25 24 23 22 19 17 16 15 14 13 13 13 13 13 13 13 12 11 10 9 10 9 8 6 5 4 3 2 1 2 3 4 6 7 8 10 11 13 14 15 16 17 18
24 23 22 22 21 20 18 17 17 17 16 16 15 15 15 16 16 15 14 13 12 12 11 9 8 7 6 5 3 3 4 5 7 8 9 10 11 13 14 15 16 17 18 19
23 21 21 21 20 18 16 16 15 15 15 15 15 16 17 17 16 16 15 14 13 13 12 11 9 8 7 7 6 6 6 7 8 10 11 12 14 14 15 16 17 18 19 20
22 20 20 19 19 18 16 15 15 15 14 15 16 16 16 16 16 15 15 15 14 13 12 11 10 9 8 8 7 8 8 9 10 12 13 14 15 16 17 17 18 19 20 21
21 20 18 17 17 16 16 15 15 15 14 15 15 15 15 15 15 15 15 14 13 13 12 11 11 11 10 10 10 10 10 11 12 13 14 15 16 17 18 18 19 20 21 22
20 19 18 16 15 15 14 15 14 14 14 14 14 15 14 14 14 14 14 14 13 13 13 12 12 12 12 11 11 11 12 12 13 13 14 14 15 15 16 17 18 20 21 22
20 19 17 15 14 13 13 13 12 11 11 12 13 13 13 13 13 13 14 14 14 14 14 13 13 13 13 12 12 12 12 12 12 12 13 13 13 14 15 16 16 17 18 19
20 19 17 14 13 12 11 11 11 10 10 10 10 11 11 11 12 13 14 14 15 15 14 15 15 14 14 13 13 13 13 12 12 12 12 12 12 13 13 13 14 15 15 15
20 19 18 16 12 11 10 10 10 9 9 9 9 9 10 11 12 13 14 15 15 15 16 16 16 15 15 15 15 14 14 14 13 13 12 12 12 11 11 11 11 11 11 11
20 19 18 17 14 11 9 9 8 8 8 7 7 8 8 9 11 12 13 14 15 16 16 17 17 16 16 16 16 16 16 15 15 14 13 13 13 12 11 11 10 10 10 9
19 19 19 18 15 12 10 9 8 7 7 7 7 7 7 8 10 11 13 14 15 16 16 17 17 17 17 17 17 17 17 17 16 16 15 15 14 13 13 12 11 10 10 9
18 19 19 18 16 13 11 10 9 7 5 6 6 6 6 7 9 10 12 13 14 15 16 16 17 17 18 17 17 17 17 17 17 17 16 16 15 15 14 14 13 12 11 11
15 17 19 18 16 14 12 11 9 8 6 4 5 5 4 5 7 9 10 12 13 14 15 16 16 17 17 18 18 18 17 17 17 17 17 17 16 16 16 15 15 14 13 13
13 14 16 18 16 15 14 13 10 8 6 5 4 4 4 4 5 7 9 10 11 13 14 14 15 16 16 17 17 17 18 18 18 18 18 18 18 17 17 17 17 16 16 16
11 12 14 15 15 14 14 14 11 8 6 5 4 4 3 3 4 5 7 8 9 11 12 13 13 14 15 15 16 16 17 17 17 18 18 18 18 18 18 18 18 18 17 18
10 10 11 12 13 14 13 13 12 10 8 5 4 4 4 4 4 4 5 6 7 9 10 11 11 12 13 14 14 15 15 16 16 17 17 17 18 18 18 18 18 18 17 17
11 10 10 10 11 12 13 13 11 10 9 7 5 4 4 4 4 4 4 5 6 7 8 9 10 10 11 12 13 13 14 15 15 15 16 16 16 17 17 17 18 18 18 18
13 12 11 10 10 10 10 11 12 10 9 9 7 5 4 5 5 5 5 5 6 6 7 8 8 9 10 10 11 12 12 13 14 14 14 15 16 16 16 16 16 16 16 17
14 13 12 11 10 9 9 10 10 11 10 8 8 6 6 6 6 6 6 6 6 6 7 7 8 8 8 9 9 10 11 12 12 13 13 14 14 15 15 15 15 15 15 15
17 16 15 14 13 11 10 9 9 10 10 9 8 7 6 6 6 6 6 7 6 7 7 7 7 8 8 8 8 9 9 10 10 11 12 12 13 13 14 14 15 14 14 14
19 18 17 16 15 14 13 11 10 9 9 9 8 7 7 6 6 6 7 7 7 8 8 7 7 7 7 7 7 7 8 8 9 9 10 11 11 12 12 13 13 13 14 14
22 21 19 19 18 17 16 14 13 11 10 9 8 8 7 7 7 7 7 7 8 9 9 9 8 8 8 7 7 7 7 7 8 8 9 9 10 10 11 11 12 12 12 12
25 24 22 21 20 20 19 18 17 15 13 12 10 9 8 8 8 8 8 8 9 10 10 10 9 9 9 8 7 7 7 7 7 7 8 8 9 9 10 10 11 11 11 11
29 27 26 24 23 23 22 21 20 19 17 16 14 12 11 10 9 9 9 9 9 9 10 10 10 10 10 10 9 9 8 7 7 7 7 8 8 8 9 9 10 10 10 10
34 32 30 28 27 26 25 25 24 23 21 20 18 16 14 13 12 11 10 10 9 9 10 11 11 11 11 11 11 10 10 9 9 8 8 8 8 8 8 9 9 9 9 9
38 36 35 33 32 30 29 28 28 27 25 24 22 21 19 17 15 14 13 12 11 11 10 11 12 12 12 12 12 12 12 11 11 10 9 9 9 9 9 8 9 8 8 8
43 41 39 38 36 35 34 33 32 31 30 28 27 25 24 22 20 18 17 15 14 14 13 12 12 12 13 13 13 13 13 13 13 12 12 11 10 10 10 9 9 9 8 8
Wind_Direction
30 35 40 46 50 55 60 65 66 65 67 67 68 66 68 65 67 72 71 73 74 75 82 83 75 74 74 67 57 358 311 293 296 291 288 288 285 282 280 279 276 272 271 273
32 36 41 47 49 53 56 59 60 63 65 65 67 65 65 65 64 65 68 69 69 64 62 60 57 52 49 38 21 353 334 320 311 303 297 291 289 286 284 282 278 275 274 274
30 34 40 42 45 49 52 56 59 60 61 60 62 64 64 65 64 64 64 64 63 60 55 51 46 39 28 17 5 351 334 322 310 302 295 291 289 287 285 283 280 278 277 276
28 31 38 39 44 48 52 55 58 61 62 62 64 66 65 64 62 60 60 59 56 52 48 43 38 31 22 10 357 343 331 321 313 306 300 296 292 289 286 284 283 280 278 277
26 30 34 37 40 45 48 51 54 60 65 66 67 65 63 60 57 55 52 49 45 40 36 32 27 20 12 3 353 343 333 324 316 310 304 299 294 291 289 286 283 281 279 278
25 27 31 33 39 43 46 50 52 58 63 63 61 59 57 54 50 47 44 40 37 33 29 24 19 13 8 1 354 347 339 331 324 316 309 304 300 296 292 289 286 284 281 279
23 24 27 29 35 38 43 45 48 52 57 56 56 54 51 48 44 41 38 34 31 28 25 23 20 16 11 6 360 354 347 341 334 327 321 314 309 305 301 297 293 290 287 283
21 22 23 23 28 31 35 39 43 48 51 51 51 46 45 44 41 38 34 31 28 26 26 23 21 18 16 13 9 5 359 354 350 345 338 331 325 319 313 308 303 300 296 291
20 20 19 20 22 24 28 34 39 45 47 45 43 42 42 40 37 34 32 30 29 29 28 26 26 26 24 21 19 17 15 12 8 3 359 354 348 342 335 329 322 317 312 305
19 17 16 18 20 21 24 29 34 36 37 37 37 38 38 36 35 33 32 32 31 31 31 31 32 31 30 30 29 28 26 24 21 19 16 13 9 5 360 354 346 341 335 328
17 17 17 16 18 20 20 22 23 24 26 29 31 33 33 33 32 32 31 32 32 33 33 34 35 35 35 34 34 34 32 31 29 28 26 23 22 21 18 15 11 7 3 360
13 15 16 16 17 19 21 20 19 21 25 28 29 32 32 29 29 29 30 31 32 34 35 36 37 37 37 36 36 35 34 34 32 31 31 30 29 29 27 26 24 24 23 21
6 11 15 18 20 23 24 20 18 18 19 21 22 26 29 27 26 26 27 30 32 33 35 36 37 37 37 36 35 35 35 35 35 34 35 35 35 35 35 35 34 34 33 32
354 2 10 15 19 23 22 19 17 16 15 14 14 16 18 17 17 19 21 25 28 31 33 34 35 36 37 36 35 35 36 36 37 38 38 39 39 40 41 41 42 43 43 43
340 351 360 7 15 20 21 21 22 20 16 11 7 4 360 356 359 4 11 17 22 25 28 30 32 33 33 34 34 36 36 37 38 39 40 40 41 42 43 44 45 47 49 49
319 331 345 356 5 13 17 20 22 23 19 10 359 351 344 343 341 342 352 2 9 14 19 23 25 28 28 29 31 33 34 35 37 38 39 41 42 43 44 45 46 48 49 51
302 308 320 335 348 0 11 15 16 16 15 10 358 347 338 329 325 321 324 336 347 357 5 11 15 19 22 24 26 28 30 32 33 35 37 39 40 41 43 44 46 48 50 51
291 293 298 308 321 338 353 5 11 10 7 5 358 340 327 323 317 308 308 314 323 334 344 353 0 7 11 15 18 22 25 28 30 32 34 37 38 39 41 43 44 46 48 49
284 285 286 289 294 307 325 342 355 2 2 359 356 347 330 318 307 298 294 300 309 316 323 334 345 351 358 4 8 12 18 23 26 29 30 33 35 37 38 41 43 44 46 48
277 278 278 279 279 283 295 311 329 343 351 353 351 346 335 322 308 298 291 287 293 302 308 315 325 335 342 350 357 3 9 14 19 23 25 27 29 32 34 36 39 42 43 44
274 273 273 272 272 272 276 284 296 312 327 338 343 342 337 328 317 303 293 288 286 288 294 301 307 316 324 332 341 350 357 4 9 13 17 20 23 25 28 31 34 38 39 41
270 269 268 267 267 267 267 270 276 285 297 309 321 328 330 327 320 310 297 289 286 284 283 287 292 298 305 313 321 330 339 348 356 2 6 10 14 17 20 24 27 31 34 37
266 266 265 264 263 263 263 263 266 270 277 286 293 302 309 315 317 312 303 296 287 281 279 278 280 284 289 294 301 308 315 324 334 344 353 359 4 8 12 16 20 24 28 31
262 263 262 262 261 260 259 259 261 263 266 271 277 283 290 294 300 306 306 300 293 284 277 273 273 275 277 280 284 289 294 302 311 321 332 341 349 354 359 4 9 14 19 24
259 259 259 258 258 258 257 257 257 258 260 262 265 270 276 281 284 290 295 297 294 290 282 273 268 269 271 273 274 277 279 283 291 300 309 319 327 335 343 348 353 359 5 11
257 256 256 256 256 256 255 255 254 254 255 256 258 261 265 270 274 277 281 286 288 287 286 279 270 265 266 268 269 270 272 273 276 282 290 299 307 314 323 331 336 341 347 355
255 255 254 254 253 253 253 252 252 252 252 253 254 256 258 261 265 269 270 273 277 280 280 278 274 268 264 263 263 265 267 269 269 271 276 282 289 296 302 311 318 324 329 334